,,PressureMeas_1m,,PRMeasQMR101_1,,RHStat155_1m_1,,SRMeasQMS101R_1m,,TAStat155_1m_1,,GenWind_1,,GenWind_1,
2017-03-22, 07:00:06,VALID,916.756,VALID,0.0,VALID,94.39,VALID,89.045,VALID,19.951,VALID,154.0,VALID,1.105,
2017-03-22, 07:01:06,VALID,916.769,VALID,0.0,VALID,94.229,VALID,98.031,VALID,19.987,VALID,163.0,VALID,1.108,
2017-03-22, 07:02:06,VALID,916.788,VALID,0.0,VALID,94.196,VALID,95.657,VALID,20.033,VALID,171.0,VALID,0.688,
2017-03-22, 07:03:06,VALID,916.802,VALID,0.0,VALID,94.019,VALID,91.466,VALID,20.066,VALID,185.0,VALID,0.74,
2017-03-22, 07:04:06,VALID,916.815,VALID,0.0,VALID,93.807,VALID,86.319,VALID,20.092,VALID,182.0,VALID,1.142,
2017-03-22, 07:05:06,VALID,916.825,VALID,0.0,VALID,93.647,VALID,81.687,VALID,20.088,VALID,170.0,VALID,1.148,
2017-03-22, 07:06:06,VALID,916.829,VALID,0.0,VALID,93.838,VALID,82.428,VALID,20.083,VALID,179.0,VALID,1.303,
2017-03-22, 07:07:06,VALID,916.836,VALID,0.0,VALID,93.951,VALID,83.459,VALID,20.063,VALID,168.0,VALID,0.972,
2017-03-22, 07:08:06,VALID,916.858,VALID,0.0,VALID,94.135,VALID,85.674,VALID,20.032,VALID,161.0,VALID,0.638,
2017-03-22, 07:09:06,VALID,916.878,VALID,0.0,VALID,94.264,VALID,96.892,VALID,20.009,VALID,162.0,VALID,0.938,
2017-03-22, 07:10:06,VALID,916.893,VALID,0.0,VALID,93.981,VALID,104.805,VALID,20.035,VALID,167.0,VALID,1.102,
2017-03-22, 07:11:06,VALID,916.902,VALID,0.0,VALID,93.614,VALID,96.862,VALID,20.096,VALID,156.0,VALID,1.888,
2017-03-22, 07:12:06,VALID,916.911,VALID,0.0,VALID,93.087,VALID,92.039,VALID,20.166,VALID,146.0,VALID,2.44,
2017-03-22, 07:13:06,VALID,916.911,VALID,0.0,VALID,92.344,VALID,99.224,VALID,20.263,VALID,151.0,VALID,2.441,
2017-03-22, 07:14:06,VALID,916.931,VALID,0.0,VALID,92.169,VALID,105.682,VALID,20.285,VALID,152.0,VALID,2.155,
2017-03-22, 07:15:06,VALID,916.933,VALID,0.0,VALID,92.022,VALID,119.55,VALID,20.274,VALID,154.0,VALID,2.897,
2017-03-22, 07:16:06,VALID,916.96,VALID,0.0,VALID,91.777,VALID,133.379,VALID,20.322,VALID,153.0,VALID,2.348,
2017-03-22, 07:17:06,VALID,916.994,VALID,0.0,VALID,91.852,VALID,155.967,VALID,20.326,VALID,154.0,VALID,2.334,
2017-03-22, 07:18:06,VALID,917.02,VALID,0.0,VALID,91.693,VALID,169.713,VALID,20.338,VALID,154.0,VALID,2.79,
2017-03-22, 07:19:06,VALID,917.058,VALID,0.0,VALID,91.42,VALID,178.193,VALID,20.395,VALID,144.0,VALID,2.587,
2017-03-22, 07:20:06,VALID,917.096,VALID,0.0,VALID,90.875,VALID,191.716,VALID,20.538,VALID,139.0,VALID,2.794,
2017-03-22, 07:21:06,VALID,917.133,VALID,0.0,VALID,90.663,VALID,194.189,VALID,20.611,VALID,146.0,VALID,2.097,
2017-03-22, 07:22:06,VALID,917.155,VALID,0.0,VALID,90.57,VALID,192.468,VALID,20.608,VALID,151.0,VALID,2.304,
2017-03-22, 07:23:06,VALID,917.144,VALID,0.0,VALID,90.096,VALID,192.665,VALID,20.608,VALID,151.0,VALID,2.516,
2017-03-22, 07:24:06,VALID,917.125,VALID,0.0,VALID,90.131,VALID,189.21,VALID,20.668,VALID,150.0,VALID,2.199,
2017-03-22, 07:25:06,VALID,917.109,VALID,0.0,VALID,89.974,VALID,185.543,VALID,20.72,VALID,163.0,VALID,1.775,
2017-03-22, 07:26:06,VALID,917.121,VALID,0.0,VALID,90.004,VALID,186.703,VALID,20.733,VALID,145.0,VALID,2.303,
2017-03-22, 07:27:06,VALID,917.138,VALID,0.0,VALID,90.214,VALID,185.845,VALID,20.753,VALID,136.0,VALID,2.795,
2017-03-22, 07:28:06,VALID,917.155,VALID,0.0,VALID,89.437,VALID,194.833,VALID,20.878,VALID,127.0,VALID,1.909,
2017-03-22, 07:29:06,VALID,917.172,VALID,0.0,VALID,89.649,VALID,197.862,VALID,20.964,VALID,134.0,VALID,2.189,
2017-03-22, 07:30:06,VALID,917.167,VALID,0.0,VALID,89.411,VALID,200.84,VALID,21.004,VALID,133.0,VALID,1.734,
2017-03-22, 07:31:06,VALID,917.161,VALID,0.0,VALID,89.376,VALID,196.134,VALID,21.002,VALID,130.0,VALID,3.093,
2017-03-22, 07:32:06,VALID,917.135,VALID,0.0,VALID,89.123,VALID,206.609,VALID,20.989,VALID,125.0,VALID,2.863,
2017-03-22, 07:33:06,VALID,917.155,VALID,0.0,VALID,88.894,VALID,213.459,VALID,20.976,VALID,122.0,VALID,3.034,
2017-03-22, 07:34:06,VALID,917.175,VALID,0.0,VALID,89.466,VALID,215.667,VALID,20.967,VALID,120.0,VALID,1.814,
2017-03-22, 07:35:06,VALID,917.189,VALID,0.0,VALID,89.901,VALID,215.487,VALID,21.012,VALID,130.0,VALID,1.875,
2017-03-22, 07:36:06,VALID,917.212,VALID,0.0,VALID,89.86,VALID,228.671,VALID,21.04,VALID,126.0,VALID,1.954,
2017-03-22, 07:37:06,VALID,917.233,VALID,0.0,VALID,89.363,VALID,230.149,VALID,21.065,VALID,107.0,VALID,2.535,
2017-03-22, 07:38:06,VALID,917.25,VALID,0.0,VALID,89.785,VALID,225.257,VALID,21.113,VALID,122.0,VALID,1.741,
2017-03-22, 07:39:06,VALID,917.258,VALID,0.0,VALID,89.566,VALID,224.626,VALID,21.156,VALID,124.0,VALID,1.729,
2017-03-22, 07:40:06,VALID,917.287,VALID,0.0,VALID,89.049,VALID,234.386,VALID,21.182,VALID,126.0,VALID,1.66,
2017-03-22, 07:41:06,VALID,917.295,VALID,0.0,VALID,89.258,VALID,245.243,VALID,21.201,VALID,108.0,VALID,2.063,
2017-03-22, 07:42:06,VALID,917.297,VALID,0.0,VALID,88.708,VALID,251.983,VALID,21.228,VALID,120.0,VALID,1.946,
2017-03-22, 07:43:06,VALID,917.267,VALID,0.0,VALID,88.451,VALID,257.061,VALID,21.257,VALID,116.0,VALID,2.742,
2017-03-22, 07:44:06,VALID,917.241,VALID,0.0,VALID,88.204,VALID,261.826,VALID,21.197,VALID,104.0,VALID,2.58,
2017-03-22, 07:45:06,VALID,917.244,VALID,0.0,VALID,88.917,VALID,265.258,VALID,21.153,VALID,108.0,VALID,1.92,
2017-03-22, 07:46:06,VALID,917.268,VALID,0.0,VALID,88.972,VALID,268.698,VALID,21.197,VALID,120.0,VALID,2.218,
2017-03-22, 07:47:06,VALID,917.29,VALID,0.0,VALID,88.927,VALID,271.262,VALID,21.289,VALID,94.0,VALID,2.183,
2017-03-22, 07:48:06,VALID,917.304,VALID,0.0,VALID,88.252,VALID,272.974,VALID,21.331,VALID,113.0,VALID,2.035,
2017-03-22, 07:49:06,VALID,917.333,VALID,0.0,VALID,88.287,VALID,276.76,VALID,21.363,VALID,106.0,VALID,1.866,
2017-03-22, 07:50:06,VALID,917.333,VALID,0.0,VALID,88.311,VALID,281.504,VALID,21.395,VALID,103.0,VALID,1.555,
2017-03-22, 07:51:06,VALID,917.327,VALID,0.0,VALID,88.534,VALID,285.155,VALID,21.489,VALID,102.0,VALID,1.447,
2017-03-22, 07:52:06,VALID,917.35,VALID,0.0,VALID,87.904,VALID,287.107,VALID,21.572,VALID,121.0,VALID,1.909,
2017-03-22, 07:53:06,VALID,917.366,VALID,0.0,VALID,86.968,VALID,289.712,VALID,21.549,VALID,107.0,VALID,2.061,
2017-03-22, 07:54:06,VALID,917.383,VALID,0.0,VALID,87.64,VALID,291.787,VALID,21.568,VALID,129.0,VALID,1.888,
2017-03-22, 07:55:06,VALID,917.39,VALID,0.0,VALID,87.338,VALID,292.207,VALID,21.673,VALID,132.0,VALID,2.037,
2017-03-22, 07:56:06,VALID,917.414,VALID,0.0,VALID,86.707,VALID,291.098,VALID,21.713,VALID,134.0,VALID,2.061,
2017-03-22, 07:57:06,VALID,917.437,VALID,0.0,VALID,86.833,VALID,292.37,VALID,21.758,VALID,148.0,VALID,1.741,
2017-03-22, 07:58:06,VALID,917.44,VALID,0.0,VALID,86.472,VALID,292.914,VALID,21.814,VALID,119.0,VALID,1.838,
2017-03-22, 07:59:06,VALID,917.456,VALID,0.0,VALID,86.613,VALID,300.564,VALID,21.843,VALID,123.0,VALID,1.292,
2017-03-22, 08:00:06,VALID,917.452,VALID,0.0,VALID,87.272,VALID,305.861,VALID,21.921,VALID,127.0,VALID,1.035,
2017-03-22, 08:01:06,VALID,917.439,VALID,0.0,VALID,86.689,VALID,303.091,VALID,22.047,VALID,153.0,VALID,1.436,
2017-03-22, 08:02:06,VALID,917.42,VALID,0.0,VALID,85.306,VALID,305.123,VALID,22.089,VALID,140.0,VALID,2.026,
2017-03-22, 08:03:06,VALID,917.405,VALID,0.0,VALID,84.765,VALID,310.528,VALID,22.032,VALID,143.0,VALID,1.909,
2017-03-22, 08:04:06,VALID,917.395,VALID,0.0,VALID,84.703,VALID,309.673,VALID,21.992,VALID,153.0,VALID,1.655,
2017-03-22, 08:05:06,VALID,917.402,VALID,0.0,VALID,85.156,VALID,307.942,VALID,21.978,VALID,138.0,VALID,1.585,
2017-03-22, 08:06:06,VALID,917.39,VALID,0.0,VALID,85.539,VALID,311.507,VALID,22.057,VALID,137.0,VALID,0.948,
2017-03-22, 08:07:06,VALID,917.39,VALID,0.0,VALID,85.773,VALID,309.413,VALID,22.184,VALID,130.0,VALID,1.237,
2017-03-22, 08:08:06,VALID,917.372,VALID,0.0,VALID,85.15,VALID,304.601,VALID,22.255,VALID,121.0,VALID,1.176,
2017-03-22, 08:09:06,VALID,917.385,VALID,0.0,VALID,85.229,VALID,305.966,VALID,22.336,VALID,135.0,VALID,1.041,
2017-03-22, 08:10:06,VALID,917.394,VALID,0.0,VALID,85.357,VALID,313.69,VALID,22.457,VALID,156.0,VALID,0.626,
2017-03-22, 08:11:06,VALID,917.406,VALID,0.0,VALID,83.071,VALID,292.937,VALID,22.575,VALID,145.0,VALID,1.144,
2017-03-22, 08:12:06,VALID,917.42,VALID,0.0,VALID,82.956,VALID,274.926,VALID,22.623,VALID,155.0,VALID,0.81,
2017-03-22, 08:13:06,VALID,917.444,VALID,0.0,VALID,82.634,VALID,262.169,VALID,22.642,VALID,186.0,VALID,1.013,
2017-03-22, 08:14:06,VALID,917.47,VALID,0.0,VALID,81.817,VALID,260.352,VALID,22.659,VALID,171.0,VALID,0.856,
2017-03-22, 08:15:06,VALID,917.471,VALID,0.0,VALID,81.905,VALID,244.072,VALID,22.744,VALID,151.0,VALID,0.914,
2017-03-22, 08:16:06,VALID,917.477,VALID,0.0,VALID,81.657,VALID,285.227,VALID,22.771,VALID,172.0,VALID,1.06,
2017-03-22, 08:17:06,VALID,917.49,VALID,0.0,VALID,81.598,VALID,294.327,VALID,22.812,VALID,162.0,VALID,0.595,
2017-03-22, 08:18:06,VALID,917.505,VALID,0.0,VALID,81.163,VALID,302.372,VALID,22.835,VALID,166.0,VALID,1.243,
2017-03-22, 08:19:06,VALID,917.543,VALID,0.0,VALID,80.59,VALID,285.993,VALID,22.838,VALID,156.0,VALID,1.153,
2017-03-22, 08:20:06,VALID,917.543,VALID,0.0,VALID,81.16,VALID,312.471,VALID,22.758,VALID,156.0,VALID,1.169,
2017-03-22, 08:21:06,VALID,917.551,VALID,0.0,VALID,80.973,VALID,359.401,VALID,22.744,VALID,164.0,VALID,0.887,
2017-03-22, 08:22:06,VALID,917.561,VALID,0.0,VALID,81.466,VALID,370.068,VALID,22.826,VALID,159.0,VALID,1.268,
2017-03-22, 08:23:06,VALID,917.591,VALID,0.0,VALID,79.978,VALID,381.324,VALID,22.879,VALID,173.0,VALID,1.36,
2017-03-22, 08:24:06,VALID,917.592,VALID,0.0,VALID,80.991,VALID,369.569,VALID,22.901,VALID,182.0,VALID,1.334,
2017-03-22, 08:25:06,VALID,917.606,VALID,0.0,VALID,80.439,VALID,357.421,VALID,22.981,VALID,152.0,VALID,1.359,
2017-03-22, 08:26:06,VALID,917.636,VALID,0.0,VALID,81.185,VALID,366.04,VALID,23.038,VALID,171.0,VALID,1.216,
2017-03-22, 08:27:06,VALID,917.655,VALID,0.0,VALID,80.192,VALID,359.899,VALID,23.104,VALID,160.0,VALID,1.922,
2017-03-22, 08:28:06,VALID,917.674,VALID,0.0,VALID,79.917,VALID,385.096,VALID,23.034,VALID,154.0,VALID,1.885,
2017-03-22, 08:29:06,VALID,917.698,VALID,0.0,VALID,80.293,VALID,404.715,VALID,22.981,VALID,162.0,VALID,1.555,
2017-03-22, 08:30:06,VALID,917.713,VALID,0.0,VALID,79.907,VALID,441.58,VALID,23.028,VALID,172.0,VALID,1.221,
2017-03-22, 08:31:06,VALID,917.725,VALID,0.0,VALID,79.95,VALID,457.689,VALID,23.112,VALID,149.0,VALID,1.395,
2017-03-22, 08:32:06,VALID,917.738,VALID,0.0,VALID,79.294,VALID,452.126,VALID,23.102,VALID,149.0,VALID,0.66,
2017-03-22, 08:33:06,VALID,917.763,VALID,0.0,VALID,80.487,VALID,461.544,VALID,23.114,VALID,156.0,VALID,1.49,
2017-03-22, 08:34:06,VALID,917.784,VALID,0.0,VALID,80.287,VALID,461.921,VALID,23.135,VALID,151.0,VALID,1.724,
2017-03-22, 08:35:06,VALID,917.802,VALID,0.0,VALID,80.833,VALID,458.183,VALID,23.163,VALID,166.0,VALID,0.759,
2017-03-22, 08:36:06,VALID,917.829,VALID,0.0,VALID,81.588,VALID,447.345,VALID,23.335,VALID,154.0,VALID,1.619,
2017-03-22, 08:37:06,VALID,917.853,VALID,0.0,VALID,79.759,VALID,424.268,VALID,23.397,VALID,121.0,VALID,1.002,
2017-03-22, 08:38:06,VALID,917.87,VALID,0.0,VALID,80.247,VALID,385.858,VALID,23.492,VALID,171.0,VALID,1.204,
2017-03-22, 08:39:06,VALID,917.884,VALID,0.0,VALID,79.089,VALID,355.397,VALID,23.563,VALID,168.0,VALID,0.568,
2017-03-22, 08:40:06,VALID,917.895,VALID,0.0,VALID,79.919,VALID,380.447,VALID,23.579,VALID,173.0,VALID,0.637,
2017-03-22, 08:41:06,VALID,917.897,VALID,0.0,VALID,79.799,VALID,372.472,VALID,23.613,VALID,155.0,VALID,0.962,
2017-03-22, 08:42:06,VALID,917.915,VALID,0.0,VALID,79.278,VALID,356.048,VALID,23.578,VALID,163.0,VALID,1.17,
2017-03-22, 08:43:06,VALID,917.919,VALID,0.0,VALID,79.741,VALID,405.87,VALID,23.513,VALID,176.0,VALID,1.295,
2017-03-22, 08:44:06,VALID,917.929,VALID,0.0,VALID,79.323,VALID,435.844,VALID,23.507,VALID,167.0,VALID,1.395,
2017-03-22, 08:45:06,VALID,917.935,VALID,0.0,VALID,80.708,VALID,448.951,VALID,23.505,VALID,169.0,VALID,1.469,
2017-03-22, 08:46:06,VALID,917.934,VALID,0.0,VALID,79.83,VALID,459.252,VALID,23.356,VALID,143.0,VALID,1.977,
2017-03-22, 08:47:06,VALID,917.93,VALID,0.0,VALID,80.964,VALID,467.674,VALID,23.137,VALID,140.0,VALID,1.705,
2017-03-22, 08:48:06,VALID,917.922,VALID,0.0,VALID,80.148,VALID,464.939,VALID,23.126,VALID,142.0,VALID,1.101,
2017-03-22, 08:49:06,VALID,917.911,VALID,0.0,VALID,82.243,VALID,465.685,VALID,23.228,VALID,149.0,VALID,1.461,
2017-03-22, 08:50:06,VALID,917.922,VALID,0.0,VALID,80.184,VALID,515.72,VALID,23.393,VALID,146.0,VALID,1.108,
2017-03-22, 08:51:06,VALID,917.932,VALID,0.0,VALID,80.691,VALID,553.204,VALID,23.432,VALID,128.0,VALID,1.248,
2017-03-22, 08:52:06,VALID,917.928,VALID,0.0,VALID,80.617,VALID,575.335,VALID,23.512,VALID,126.0,VALID,1.225,
2017-03-22, 08:53:06,VALID,917.916,VALID,0.0,VALID,80.402,VALID,572.158,VALID,23.63,VALID,131.0,VALID,1.314,
2017-03-22, 08:54:06,VALID,917.92,VALID,0.0,VALID,80.813,VALID,559.843,VALID,23.726,VALID,152.0,VALID,0.476,
2017-03-22, 08:55:06,VALID,917.927,VALID,0.0,VALID,81.847,VALID,560.183,VALID,24.082,VALID,146.0,VALID,1.184,
2017-03-22, 08:56:06,VALID,917.952,VALID,0.0,VALID,77.761,VALID,548.324,VALID,24.164,VALID,132.0,VALID,1.9,
2017-03-22, 08:57:06,VALID,917.98,VALID,0.0,VALID,78.641,VALID,550.181,VALID,24.078,VALID,149.0,VALID,1.862,
2017-03-22, 08:58:06,VALID,918.016,VALID,0.0,VALID,77.858,VALID,559.382,VALID,23.986,VALID,162.0,VALID,1.0,
2017-03-22, 08:59:06,VALID,918.004,VALID,0.0,VALID,77.999,VALID,550.299,VALID,24.11,VALID,226.0,VALID,0.329,
2017-03-22, 09:00:06,VALID,918.009,VALID,0.0,VALID,77.437,VALID,584.326,VALID,24.274,VALID,137.0,VALID,1.287,
2017-03-22, 09:01:06,VALID,918.018,VALID,0.0,VALID,76.261,VALID,586.616,VALID,24.212,VALID,146.0,VALID,1.541,
2017-03-22, 09:02:06,VALID,918.028,VALID,0.0,VALID,76.368,VALID,590.118,VALID,24.198,VALID,180.0,VALID,0.846,
2017-03-22, 09:03:06,VALID,918.041,VALID,0.0,VALID,76.265,VALID,618.122,VALID,24.319,VALID,128.0,VALID,1.176,
2017-03-22, 09:04:06,VALID,918.059,VALID,0.0,VALID,77.682,VALID,633.008,VALID,24.44,VALID,152.0,VALID,1.525,
2017-03-22, 09:05:06,VALID,918.073,VALID,0.0,VALID,75.41,VALID,638.753,VALID,24.498,VALID,136.0,VALID,1.33,
2017-03-22, 09:06:06,VALID,918.067,VALID,0.0,VALID,76.194,VALID,639.71,VALID,24.409,VALID,153.0,VALID,1.3,
2017-03-22, 09:07:06,VALID,918.082,VALID,0.0,VALID,75.523,VALID,644.534,VALID,24.478,VALID,142.0,VALID,1.392,
2017-03-22, 09:08:06,VALID,918.082,VALID,0.0,VALID,76.786,VALID,647.096,VALID,24.478,VALID,136.0,VALID,1.853,
2017-03-22, 09:09:06,VALID,918.091,VALID,0.0,VALID,74.935,VALID,652.654,VALID,24.356,VALID,137.0,VALID,1.669,
2017-03-22, 09:10:06,VALID,918.078,VALID,0.0,VALID,75.788,VALID,650.895,VALID,24.284,VALID,127.0,VALID,1.526,
